QPF
0.00 0.00 0.00 0.00 0.00 0.00 0.00 0.00 0.00 0.00 0.00 0.00 0.00 0.00 0.00 0.00 0.00 0.00 0.00 0.00 0.00 0.00 0.00 0.00 0.00 0.00 0.00 0.00 0.00 0.00 0.00 0.00 0.00 0.00 0.00 0.00 0.00 0.00 0.00 0.00 0.00 0.00 0.00 0.00 0.00 0.00 0.00 0.00 0.00
0.00 0.00 0.00 0.00 0.00 0.00 0.00 0.00 0.00 0.00 0.00 0.00 0.00 0.00 0.00 0.00 0.00 0.00 0.00 0.00 0.00 0.00 0.00 0.00 0.00 0.00 0.00 0.00 0.00 0.00 0.00 0.00 0.00 0.00 0.00 0.00 0.00 0.00 0.00 0.00 0.00 0.00 0.00 0.00 0.00 0.00 0.00 0.00 0.00
0.00 0.00 0.00 0.00 0.00 0.00 0.00 0.00 0.00 0.00 0.00 0.00 0.00 0.00 0.00 0.00 0.00 0.00 0.00 0.00 0.00 0.00 0.00 0.00 0.00 0.00 0.00 0.00 0.00 0.00 0.00 0.00 0.00 0.00 0.00 0.00 0.00 0.00 0.00 0.00 0.00 0.00 0.00 0.00 0.00 0.00 0.00 0.00 0.00
0.00 0.00 0.00 0.00 0.00 0.00 0.00 0.00 0.00 0.00 0.00 0.00 0.00 0.00 0.00 0.00 0.00 0.00 0.00 0.00 0.00 0.00 0.00 0.00 0.00 0.00 0.00 0.00 0.00 0.00 0.00 0.00 0.00 0.00 0.00 0.00 0.00 0.00 0.00 0.00 0.00 0.00 0.00 0.00 0.00 0.00 0.00 0.00 0.00
0.00 0.00 0.00 0.00 0.00 0.00 0.00 0.00 0.00 0.00 0.00 0.00 0.00 0.00 0.00 0.00 0.00 0.00 0.00 0.00 0.00 0.00 0.00 0.00 0.00 0.00 0.00 0.00 0.00 0.00 0.00 0.00 0.00 0.00 0.00 0.00 0.00 0.00 0.00 0.00 0.00 0.00 0.00 0.00 0.00 0.00 0.00 0.00 0.00
0.00 0.00 0.00 0.00 0.00 0.00 0.00 0.00 0.00 0.00 0.00 0.00 0.00 0.00 0.00 0.00 0.00 0.00 0.00 0.00 0.00 0.00 0.00 0.00 0.00 0.00 0.00 0.00 0.00 0.00 0.00 0.00 0.00 0.00 0.00 0.00 0.00 0.00 0.00 0.00 0.00 0.00 0.00 0.00 0.00 0.00 0.00 0.00 0.00
0.00 0.00 0.00 0.00 0.00 0.00 0.00 0.00 0.00 0.00 0.00 0.00 0.00 0.00 0.00 0.00 0.00 0.00 0.00 0.00 0.00 0.00 0.00 0.00 0.00 0.00 0.00 0.00 0.00 0.00 0.00 0.00 0.00 0.00 0.00 0.00 0.00 0.00 0.00 0.00 0.00 0.00 0.00 0.00 0.00 0.00 0.00 0.00 0.00
0.00 0.00 0.00 0.00 0.00 0.00 0.00 0.00 0.00 0.00 0.00 0.00 0.00 0.00 0.00 0.00 0.00 0.00 0.00 0.00 0.00 0.00 0.00 0.00 0.00 0.00 0.00 0.00 0.00 0.00 0.00 0.00 0.00 0.00 0.00 0.00 0.00 0.00 0.00 0.00 0.00 0.00 0.00 0.00 0.00 0.00 0.00 0.00 0.00
0.00 0.00 0.00 0.00 0.00 0.00 0.00 0.00 0.00 0.00 0.00 0.00 0.00 0.00 0.00 0.00 0.00 0.00 0.00 0.00 0.00 0.00 0.00 0.00 0.00 0.00 0.00 0.00 0.00 0.00 0.00 0.00 0.00 0.00 0.00 0.00 0.00 0.00 0.00 0.00 0.00 0.00 0.00 0.00 0.00 0.00 0.00 0.00 0.00
0.00 0.00 0.00 0.00 0.00 0.00 0.00 0.00 0.00 0.00 0.00 0.00 0.00 0.00 0.00 0.00 0.00 0.00 0.00 0.00 0.00 0.00 0.00 0.00 0.00 0.00 0.00 0.00 0.00 0.00 0.00 0.00 0.00 0.00 0.00 0.00 0.00 0.00 0.00 0.00 0.00 0.00 0.00 0.00 0.00 0.00 0.00 0.00 0.00
0.00 0.00 0.00 0.00 0.00 0.00 0.00 0.00 0.00 0.00 0.00 0.00 0.00 0.00 0.00 0.00 0.00 0.00 0.00 0.00 0.00 0.00 0.00 0.00 0.00 0.00 0.00 0.00 0.00 0.00 0.00 0.00 0.00 0.00 0.00 0.00 0.00 0.00 0.00 0.00 0.00 0.00 0.00 0.00 0.00 0.00 0.00 0.00 0.00
0.00 0.00 0.00 0.00 0.00 0.00 0.00 0.00 0.00 0.00 0.00 0.00 0.00 0.00 0.00 0.00 0.00 0.00 0.00 0.00 0.00 0.00 0.00 0.00 0.00 0.00 0.00 0.00 0.00 0.00 0.00 0.00 0.00 0.00 0.00 0.00 0.00 0.00 0.00 0.00 0.00 0.00 0.00 0.00 0.00 0.00 0.00 0.00 0.00
0.00 0.00 0.00 0.00 0.00 0.00 0.00 0.00 0.00 0.00 0.00 0.00 0.00 0.00 0.00 0.00 0.00 0.00 0.00 0.00 0.00 0.00 0.00 0.00 0.00 0.00 0.00 0.00 0.00 0.00 0.00 0.00 0.00 0.00 0.00 0.00 0.00 0.00 0.00 0.00 0.00 0.00 0.00 0.00 0.00 0.00 0.00 0.00 0.00
0.00 0.00 0.00 0.00 0.00 0.00 0.00 0.00 0.00 0.00 0.00 0.00 0.00 0.00 0.00 0.00 0.00 0.00 0.00 0.00 0.00 0.00 0.00 0.00 0.00 0.00 0.00 0.00 0.00 0.00 0.00 0.00 0.00 0.00 0.00 0.00 0.00 0.00 0.00 0.00 0.00 0.00 0.00 0.00 0.00 0.00 0.00 0.00 0.00
0.00 0.00 0.00 0.00 0.00 0.00 0.00 0.00 0.00 0.00 0.00 0.00 0.00 0.00 0.00 0.00 0.00 0.00 0.00 0.00 0.00 0.00 0.00 0.00 0.00 0.00 0.00 0.00 0.00 0.00 0.00 0.00 0.00 0.00 0.00 0.00 0.00 0.00 0.00 0.00 0.00 0.00 0.00 0.00 0.00 0.00 0.00 0.00 0.00
0.00 0.00 0.00 0.00 0.00 0.00 0.00 0.00 0.00 0.00 0.00 0.00 0.00 0.00 0.00 0.00 0.00 0.00 0.00 0.00 0.00 0.00 0.00 0.00 0.00 0.00 0.00 0.00 0.00 0.00 0.00 0.00 0.00 0.00 0.00 0.00 0.00 0.00 0.00 0.00 0.00 0.00 0.00 0.00 0.00 0.00 0.00 0.00 0.00
0.00 0.00 0.00 0.00 0.00 0.00 0.00 0.00 0.00 0.00 0.00 0.00 0.00 0.00 0.00 0.00 0.00 0.00 0.00 0.00 0.00 0.00 0.00 0.00 0.00 0.00 0.00 0.00 0.00 0.00 0.00 0.00 0.00 0.00 0.00 0.00 0.00 0.00 0.00 0.00 0.00 0.00 0.00 0.00 0.00 0.00 0.00 0.00 0.00
0.00 0.00 0.00 0.00 0.00 0.00 0.00 0.00 0.00 0.00 0.00 0.00 0.00 0.00 0.00 0.00 0.00 0.00 0.00 0.00 0.00 0.00 0.00 0.00 0.00 0.00 0.00 0.00 0.00 0.00 0.00 0.00 0.00 0.00 0.00 0.00 0.00 0.00 0.00 0.00 0.00 0.00 0.00 0.00 0.00 0.00 0.00 0.00 0.00
0.00 0.00 0.00 0.00 0.00 0.00 0.00 0.00 0.00 0.00 0.00 0.00 0.00 0.00 0.00 0.00 0.00 0.00 0.00 0.00 0.00 0.00 0.00 0.00 0.00 0.00 0.00 0.00 0.00 0.00 0.00 0.00 0.00 0.00 0.00 0.00 0.00 0.00 0.00 0.00 0.00 0.00 0.00 0.00 0.00 0.00 0.00 0.00 0.00
0.00 0.00 0.00 0.00 0.00 0.00 0.00 0.00 0.00 0.00 0.00 0.00 0.00 0.00 0.00 0.00 0.00 0.00 0.00 0.00 0.00 0.00 0.00 0.00 0.00 0.00 0.00 0.00 0.00 0.00 0.00 0.00 0.00 0.00 0.00 0.00 0.00 0.00 0.00 0.00 0.00 0.00 0.00 0.00 0.00 0.00 0.00 0.00 0.00
0.00 0.00 0.00 0.00 0.00 0.00 0.00 0.00 0.00 0.00 0.00 0.00 0.00 0.00 0.00 0.00 0.00 0.00 0.00 0.00 0.00 0.00 0.00 0.00 0.00 0.00 0.00 0.00 0.00 0.00 0.00 0.00 0.00 0.00 0.00 0.00 0.00 0.00 0.00 0.00 0.00 0.00 0.00 0.01 0.00 0.00 0.01 0.01 0.00
0.00 0.00 0.00 0.00 0.00 0.00 0.00 0.00 0.00 0.00 0.00 0.00 0.00 0.00 0.00 0.00 0.00 0.00 0.00 0.00 0.00 0.00 0.00 0.00 0.00 0.00 0.00 0.00 0.00 0.00 0.00 0.00 0.00 0.00 0.00 0.00 0.00 0.00 0.00 0.00 0.00 0.00 0.01 0.00 0.00 0.01 0.01 0.01 0.01
0.00 0.00 0.00 0.00 0.00 0.00 0.00 0.00 0.00 0.00 0.00 0.00 0.00 0.00 0.00 0.00 0.00 0.00 0.00 0.00 0.00 0.00 0.00 0.00 0.00 0.00 0.00 0.00 0.00 0.00 0.00 0.00 0.00 0.00 0.00 0.00 0.00 0.00 0.00 0.00 0.00 0.00 0.00 0.00 0.00 0.01 0.01 0.01 0.02
0.00 0.00 0.00 0.00 0.00 0.00 0.00 0.00 0.00 0.00 0.00 0.00 0.00 0.00 0.00 0.00 0.00 0.00 0.00 0.00 0.00 0.00 0.00 0.00 0.00 0.00 0.00 0.00 0.00 0.00 0.00 0.00 0.00 0.00 0.00 0.00 0.00 0.00 0.00 0.00 0.00 0.00 0.00 0.00 0.00 0.01 0.00 0.01 0.01
0.01 0.00 0.00 0.00 0.00 0.00 0.00 0.00 0.00 0.00 0.00 0.00 0.00 0.00 0.00 0.00 0.00 0.00 0.00 0.00 0.00 0.00 0.00 0.00 0.00 0.00 0.00 0.00 0.00 0.00 0.00 0.00 0.00 0.00 0.00 0.00 0.00 0.00 0.00 0.00 0.00 0.00 0.00 0.00 0.00 0.00 0.01 0.00 0.00
0.00 0.00 0.00 0.00 0.00 0.00 0.00 0.00 0.00 0.00 0.00 0.00 0.00 0.00 0.00 0.00 0.00 0.00 0.00 0.00 0.00 0.00 0.00 0.00 0.00 0.00 0.00 0.00 0.00 0.00 0.00 0.00 0.00 0.00 0.00 0.00 0.00 0.00 0.00 0.00 0.00 0.00 0.00 0.00 0.00 0.00 0.00 0.00 0.00
0.00 0.00 0.00 0.00 0.00 0.00 0.00 0.00 0.00 0.00 0.00 0.00 0.00 0.00 0.00 0.00 0.00 0.00 0.00 0.00 0.00 0.00 0.00 0.00 0.00 0.00 0.00 0.00 0.00 0.00 0.00 0.00 0.00 0.00 0.00 0.00 0.00 0.00 0.00 0.00 0.00 0.00 0.00 0.00 0.00 0.01 0.00 0.00 0.00
0.00 0.00 0.00 0.00 0.00 0.00 0.00 0.00 0.00 0.00 0.00 0.00 0.00 0.00 0.00 0.00 0.00 0.00 0.00 0.00 0.00 0.00 0.00 0.00 0.00 0.00 0.00 0.00 0.00 0.00 0.00 0.00 0.00 0.00 0.00 0.00 0.00 0.00 0.00 0.00 0.00 0.00 0.00 0.00 0.00 0.00 0.00 0.00 0.00
0.00 0.00 0.00 0.00 0.00 0.00 0.00 0.00 0.00 0.00 0.00 0.00 0.00 0.00 0.00 0.00 0.00 0.00 0.00 0.00 0.00 0.00 0.00 0.00 0.00 0.00 0.00 0.00 0.00 0.00 0.00 0.00 0.00 0.00 0.00 0.00 0.00 0.00 0.00 0.00 0.00 0.00 0.00 0.00 0.00 0.00 0.00 0.00 0.00
0.00 0.00 0.00 0.00 0.00 0.00 0.00 0.00 0.00 0.00 0.00 0.00 0.00 0.00 0.00 0.00 0.00 0.00 0.00 0.00 0.00 0.00 0.00 0.00 0.00 0.00 0.00 0.00 0.00 0.00 0.00 0.00 0.00 0.00 0.00 0.00 0.00 0.00 0.00 0.00 0.00 0.00 0.00 0.00 0.00 0.00 0.00 0.00 0.00
MSLP
1010.62 1010.73 1010.97 1011.59 1013.21 1014.18 1015.93 1016.56 1016.70 1017.20 1018.04 1018.58 1018.37 1018.92 1020.46 1021.16 1021.98 1023.42 1024.06 1024.19 1024.46 1024.44 1024.32 1024.28 1024.04 1023.86 1023.66 1023.41 1023.21 1022.85 1022.51 1022.29 1021.94 1021.52 1021.11 1020.65 1020.24 1019.80 1019.51 1019.25 1018.99 1018.70 1018.36 1017.93 1017.58 1017.34 1017.02 1016.76 1016.48
1010.26 1010.50 1011.13 1012.13 1013.72 1015.57 1016.89 1016.93 1017.10 1017.29 1017.92 1018.39 1018.68 1019.58 1020.39 1022.20 1022.27 1023.15 1023.94 1024.47 1024.17 1024.33 1024.36 1024.20 1023.92 1023.78 1023.59 1023.30 1023.12 1022.80 1022.55 1022.33 1022.02 1021.77 1021.48 1020.89 1020.45 1020.00 1019.83 1019.49 1019.13 1018.88 1018.48 1018.01 1017.71 1017.45 1017.21 1016.95 1016.64
1009.94 1010.16 1011.64 1013.02 1014.77 1016.24 1017.00 1017.26 1017.32 1017.71 1017.99 1018.06 1019.26 1020.01 1020.92 1022.22 1022.62 1023.33 1023.97 1024.20 1024.21 1024.37 1024.27 1024.05 1023.84 1023.59 1023.52 1023.20 1023.00 1022.75 1022.56 1022.40 1022.26 1022.03 1021.59 1021.14 1020.77 1020.35 1020.11 1019.76 1019.40 1018.99 1018.60 1018.20 1017.81 1017.54 1017.34 1017.07 1016.70
1009.79 1011.02 1012.32 1013.73 1015.62 1016.06 1016.39 1016.87 1017.09 1017.74 1018.07 1018.43 1019.54 1020.90 1021.66 1022.02 1022.49 1023.34 1023.84 1023.99 1024.27 1024.51 1024.41 1024.15 1023.86 1023.63 1023.34 1023.17 1022.95 1022.71 1022.55 1022.52 1022.37 1022.08 1021.82 1021.40 1021.10 1020.69 1020.40 1020.08 1019.55 1019.05 1018.69 1018.40 1018.04 1017.80 1017.73 1017.31 1016.89
1010.07 1011.57 1013.47 1015.14 1015.99 1016.14 1016.27 1016.45 1016.87 1017.47 1018.24 1018.97 1019.45 1021.51 1022.31 1022.87 1022.97 1023.49 1023.66 1023.74 1024.25 1024.49 1024.34 1024.20 1023.99 1023.78 1023.57 1023.23 1022.99 1022.77 1022.69 1022.67 1022.46 1022.14 1021.95 1021.70 1021.51 1021.17 1020.79 1020.51 1019.99 1019.50 1018.92 1018.58 1018.28 1018.07 1017.84 1017.60 1017.14
1010.65 1011.91 1014.14 1015.61 1016.03 1016.14 1016.42 1016.58 1016.93 1017.59 1018.53 1019.37 1020.14 1021.22 1022.69 1023.02 1023.07 1023.43 1023.50 1023.87 1024.02 1024.36 1024.44 1024.43 1024.15 1023.97 1023.80 1023.44 1023.19 1022.92 1022.77 1022.74 1022.46 1022.23 1022.14 1021.97 1021.76 1021.44 1021.09 1020.75 1020.27 1019.63 1019.05 1018.54 1018.26 1018.08 1017.94 1017.65 1017.40
1010.86 1012.60 1014.08 1015.14 1015.81 1016.08 1016.26 1016.40 1016.84 1017.69 1018.46 1019.22 1019.62 1021.34 1022.78 1023.13 1023.02 1023.19 1023.50 1023.84 1024.10 1024.39 1024.66 1024.75 1024.55 1024.29 1024.07 1023.76 1023.38 1023.08 1022.85 1022.77 1022.45 1022.33 1022.30 1022.26 1022.09 1021.69 1021.37 1020.98 1020.42 1019.87 1019.29 1018.70 1018.28 1018.26 1018.19 1017.80 1017.42
1010.27 1012.31 1014.48 1015.37 1015.71 1016.01 1016.29 1016.70 1017.25 1017.77 1018.82 1019.21 1019.62 1021.08 1022.49 1022.53 1022.77 1023.12 1023.67 1024.15 1024.46 1024.60 1024.87 1024.79 1024.68 1024.51 1024.36 1024.22 1023.65 1023.43 1023.17 1022.90 1022.71 1022.59 1022.47 1022.56 1022.42 1021.96 1021.59 1021.00 1020.40 1020.01 1019.49 1019.33 1018.95 1018.61 1018.22 1017.82 1017.57
1010.12 1012.42 1014.42 1014.94 1015.67 1015.83 1016.33 1016.81 1018.07 1018.66 1018.96 1019.83 1019.91 1020.32 1020.81 1021.82 1022.66 1023.37 1024.07 1024.51 1024.73 1024.92 1025.01 1024.91 1024.74 1024.60 1024.44 1024.16 1023.82 1023.74 1023.43 1023.08 1023.01 1022.94 1022.85 1022.73 1022.44 1022.00 1021.77 1021.31 1020.87 1020.55 1020.12 1019.84 1019.39 1018.73 1018.13 1017.74 1017.66
1011.56 1013.43 1014.35 1014.50 1014.81 1015.57 1016.34 1016.72 1017.98 1019.30 1019.68 1020.63 1020.66 1020.96 1021.22 1022.09 1022.73 1023.32 1023.91 1024.41 1024.77 1025.16 1025.23 1025.12 1024.91 1024.79 1024.56 1024.18 1024.08 1023.98 1023.74 1023.51 1023.38 1023.31 1023.24 1022.74 1022.50 1022.18 1021.99 1021.72 1021.21 1020.96 1020.34 1020.14 1019.52 1018.91 1018.27 1017.89 1017.59
1012.79 1014.05 1014.39 1015.04 1014.94 1015.79 1016.77 1017.56 1018.22 1019.41 1020.48 1020.49 1020.89 1021.35 1021.71 1022.13 1022.76 1023.28 1023.92 1024.22 1024.68 1025.06 1025.21 1025.25 1025.07 1024.88 1024.70 1024.56 1024.33 1024.28 1024.01 1023.73 1023.64 1023.49 1023.28 1022.93 1022.77 1022.72 1022.59 1022.17 1021.64 1021.23 1020.62 1020.31 1019.79 1019.09 1018.41 1017.89 1017.39
1013.74 1014.55 1014.60 1015.39 1015.88 1016.52 1017.21 1017.87 1019.01 1019.39 1020.02 1020.65 1021.02 1021.35 1021.84 1022.23 1022.76 1023.27 1023.85 1024.35 1024.84 1025.09 1025.22 1025.29 1025.12 1024.85 1024.70 1024.58 1024.52 1024.48 1024.20 1023.77 1023.80 1023.58 1023.34 1023.23 1023.25 1023.10 1022.86 1022.32 1021.86 1021.48 1021.07 1020.47 1019.90 1019.14 1018.42 1017.72 1017.12
1014.35 1014.97 1015.33 1015.75 1016.27 1017.15 1017.54 1018.69 1019.46 1020.19 1020.37 1020.72 1021.07 1021.59 1022.12 1022.43 1022.76 1023.29 1023.62 1024.40 1024.85 1025.07 1025.35 1025.38 1025.13 1024.90 1024.69 1024.72 1024.81 1024.60 1024.26 1024.11 1023.97 1023.62 1023.69 1023.66 1023.54 1023.30 1022.92 1022.46 1022.01 1021.70 1021.05 1020.41 1019.76 1019.06 1018.31 1017.62 1016.99
1014.79 1015.43 1016.09 1016.44 1016.93 1017.63 1018.35 1019.32 1019.41 1020.87 1020.75 1021.16 1021.34 1021.78 1022.22 1022.56 1023.04 1023.46 1023.92 1024.65 1024.79 1025.15 1025.46 1025.44 1025.19 1024.93 1024.87 1025.08 1025.05 1024.85 1024.53 1024.32 1024.08 1023.92 1023.99 1023.81 1023.76 1023.40 1023.08 1022.64 1022.18 1021.61 1021.11 1020.51 1019.85 1019.18 1018.41 1017.62 1016.85
1015.29 1016.26 1016.63 1016.76 1017.12 1018.13 1018.18 1019.53 1020.23 1020.48 1020.87 1021.47 1021.73 1021.82 1022.29 1022.55 1022.98 1023.21 1023.72 1024.40 1024.72 1025.08 1025.31 1025.30 1025.06 1025.15 1025.27 1025.30 1025.11 1024.98 1024.78 1024.50 1024.46 1024.42 1024.13 1023.99 1023.76 1023.49 1023.07 1022.74 1022.24 1021.73 1021.14 1020.52 1019.82 1019.08 1018.42 1017.61 1016.63
1015.96 1016.75 1017.43 1017.07 1017.12 1017.77 1018.24 1019.37 1020.45 1020.64 1020.93 1021.69 1021.89 1021.95 1022.24 1022.59 1022.61 1022.99 1023.39 1024.03 1024.57 1024.65 1024.98 1025.01 1025.03 1025.42 1025.61 1025.49 1025.29 1025.12 1025.00 1024.86 1024.82 1024.68 1024.32 1024.13 1023.75 1023.41 1023.20 1022.85 1022.25 1021.72 1021.11 1020.44 1019.79 1018.95 1018.20 1017.38 1016.59
1016.46 1016.93 1017.20 1017.19 1017.04 1017.60 1018.40 1019.32 1020.16 1020.71 1021.03 1021.77 1021.79 1022.10 1022.00 1022.43 1022.70 1023.02 1023.14 1023.69 1024.07 1024.26 1024.72 1024.99 1025.39 1025.60 1025.62 1025.60 1025.39 1025.39 1025.31 1025.24 1025.15 1024.81 1024.55 1024.25 1023.76 1023.58 1023.41 1022.95 1022.32 1021.76 1021.08 1020.40 1019.74 1018.78 1018.10 1017.21 1016.31
1015.70 1016.45 1016.57 1016.61 1016.92 1017.45 1018.38 1018.99 1019.90 1020.47 1020.85 1021.41 1021.42 1021.81 1022.11 1022.24 1022.66 1022.86 1023.10 1023.58 1023.90 1024.11 1024.52 1024.92 1025.23 1025.58 1025.47 1025.68 1025.71 1025.77 1025.64 1025.50 1025.28 1025.00 1024.74 1024.30 1024.11 1023.86 1023.69 1023.00 1022.48 1021.75 1021.05 1020.30 1019.59 1018.75 1017.78 1016.93 1015.90
1014.18 1015.00 1015.62 1015.86 1016.23 1017.00 1017.77 1018.63 1019.50 1019.98 1020.85 1021.04 1021.33 1021.45 1021.84 1022.16 1022.40 1022.74 1023.22 1023.69 1024.13 1024.31 1024.66 1024.91 1025.29 1025.43 1025.60 1025.78 1026.23 1026.38 1026.29 1025.74 1025.32 1025.23 1024.91 1024.67 1024.46 1024.18 1023.71 1023.19 1022.52 1021.80 1021.18 1020.43 1019.48 1018.54 1017.53 1016.53 1015.77
1013.73 1014.53 1015.21 1015.59 1016.05 1016.96 1017.77 1018.35 1018.85 1019.47 1019.38 1019.71 1020.40 1020.99 1021.41 1022.03 1022.48 1022.90 1023.33 1023.75 1024.02 1024.63 1024.87 1025.14 1025.31 1025.59 1025.90 1026.07 1026.61 1026.62 1026.28 1025.78 1025.51 1025.49 1025.26 1024.97 1024.69 1024.36 1023.78 1023.32 1022.68 1022.03 1021.29 1020.25 1019.48 1018.58 1017.56 1016.67 1015.91
1013.62 1013.98 1014.77 1015.36 1016.28 1017.00 1017.61 1018.13 1018.27 1018.52 1018.87 1019.43 1019.86 1020.19 1020.82 1021.13 1022.02 1022.80 1023.52 1024.04 1024.33 1024.79 1025.04 1025.26 1025.52 1025.87 1026.14 1026.45 1026.66 1026.64 1026.25 1025.89 1025.77 1025.67 1025.63 1025.31 1025.06 1024.65 1024.01 1023.43 1022.87 1022.21 1021.17 1020.43 1019.65 1018.68 1017.84 1016.72 1015.98
1013.45 1013.44 1014.32 1015.57 1016.77 1017.63 1017.65 1018.31 1017.71 1017.50 1018.19 1018.76 1019.15 1019.69 1020.17 1020.91 1021.94 1022.58 1023.53 1024.27 1024.63 1024.97 1025.02 1025.38 1025.67 1026.14 1026.56 1026.72 1026.99 1026.94 1026.82 1026.63 1026.46 1026.39 1026.24 1025.80 1025.30 1024.80 1024.08 1023.55 1023.00 1022.16 1021.36 1020.63 1019.90 1018.90 1018.08 1017.33 1016.31
1013.76 1014.14 1015.03 1016.20 1017.32 1017.92 1018.27 1018.85 1017.37 1017.46 1018.24 1018.02 1018.25 1018.83 1019.70 1020.49 1021.38 1022.55 1023.37 1024.08 1024.69 1025.14 1025.37 1025.66 1026.07 1026.62 1026.78 1027.14 1027.24 1027.17 1027.10 1026.94 1026.76 1026.69 1026.43 1026.14 1025.55 1024.88 1024.24 1023.68 1023.16 1022.17 1021.59 1020.85 1020.03 1019.06 1018.33 1017.58 1016.79
1014.12 1015.23 1016.52 1017.55 1018.55 1019.32 1018.30 1018.40 1017.35 1017.16 1016.15 1016.67 1017.55 1018.38 1019.37 1020.54 1021.50 1022.51 1023.41 1024.22 1025.04 1025.37 1025.68 1025.99 1026.45 1026.96 1027.06 1027.40 1027.47 1027.37 1027.31 1027.16 1027.14 1026.99 1026.84 1026.48 1025.93 1025.20 1024.52 1023.87 1023.31 1022.47 1021.74 1021.02 1020.22 1019.35 1018.55 1017.75 1017.06
1015.00 1016.79 1018.57 1019.73 1020.17 1019.68 1018.34 1018.32 1016.31 1015.55 1014.76 1015.10 1016.18 1017.89 1019.28 1020.37 1021.59 1022.75 1023.68 1024.60 1025.17 1025.59 1026.05 1026.46 1026.78 1027.14 1027.48 1027.77 1027.72 1027.57 1027.43 1027.31 1027.37 1027.30 1027.22 1026.91 1026.28 1025.55 1024.80 1024.12 1023.39 1022.73 1021.98 1021.19 1020.38 1019.54 1018.72 1017.95 1017.11
1015.88 1017.15 1018.83 1020.02 1020.60 1019.83 1018.26 1017.70 1015.83 1014.92 1014.35 1014.20 1015.71 1017.88 1019.47 1020.80 1021.92 1022.95 1023.84 1024.65 1025.29 1025.71 1026.25 1026.65 1027.00 1027.38 1027.96 1028.10 1028.01 1027.81 1027.63 1027.50 1027.48 1027.43 1027.32 1027.14 1026.59 1025.88 1025.08 1024.42 1023.56 1022.85 1022.13 1021.35 1020.49 1019.75 1019.11 1018.25 1017.34
1016.14 1017.19 1017.83 1019.67 1020.85 1020.36 1018.99 1017.41 1016.11 1015.52 1015.37 1015.65 1016.93 1018.41 1020.03 1021.19 1022.12 1023.10 1024.22 1024.93 1025.38 1025.89 1026.46 1026.82 1027.08 1027.84 1028.17 1028.37 1028.26 1028.06 1027.84 1027.70 1027.66 1027.57 1027.38 1027.23 1026.70 1025.87 1025.34 1024.78 1023.86 1023.04 1022.30 1021.53 1020.78 1020.06 1019.39 1018.56 1017.69
1016.30 1017.75 1018.80 1020.20 1021.77 1021.91 1020.15 1018.63 1017.09 1016.79 1017.01 1017.31 1018.04 1019.07 1020.49 1021.45 1022.56 1023.68 1024.49 1024.98 1025.63 1026.17 1026.53 1026.81 1027.42 1028.07 1028.47 1028.61 1028.47 1028.30 1028.07 1027.96 1027.77 1027.63 1027.52 1027.24 1026.80 1026.31 1025.73 1025.03 1024.24 1023.33 1022.61 1021.88 1021.12 1020.41 1019.81 1019.08 1018.15
1017.54 1018.75 1020.08 1021.42 1022.22 1022.56 1021.80 1019.51 1017.98 1017.65 1017.51 1018.03 1018.76 1019.43 1020.48 1021.70 1022.78 1023.75 1024.55 1025.27 1025.74 1026.25 1026.49 1027.36 1027.89 1028.39 1028.76 1028.85 1028.64 1028.51 1028.33 1028.23 1028.01 1027.86 1027.62 1027.28 1026.98 1026.63 1026.09 1025.47 1024.77 1023.92 1023.10 1022.26 1021.55 1020.85 1020.30 1019.51 1018.65
1018.12 1019.14 1019.85 1021.74 1023.02 1022.85 1022.58 1020.07 1018.38 1018.10 1018.02 1018.14 1019.21 1020.00 1020.96 1021.74 1022.79 1023.69 1024.50 1025.21 1025.99 1026.33 1026.97 1027.68 1028.26 1028.65 1028.93 1028.96 1028.84 1028.70 1028.62 1028.50 1028.37 1028.18 1027.86 1027.62 1027.36 1026.95 1026.59 1026.03 1025.35 1024.55 1023.62 1022.80 1022.13 1021.40 1020.86 1020.15 1019.16
Thickness
5802 5800 5797 5785 5749 5734 5713 5717 5731 5722 5709 5709 5712 5700 5680 5676 5669 5661 5652 5648 5643 5641 5638 5634 5630 5627 5625 5623 5621 5619 5618 5617 5616 5617 5616 5617 5617 5619 5618 5618 5618 5618 5619 5620 5620 5620 5621 5623 5625
5802 5798 5787 5766 5730 5710 5698 5722 5716 5719 5715 5712 5709 5698 5686 5662 5668 5660 5650 5643 5642 5636 5631 5627 5625 5622 5619 5618 5616 5614 5612 5610 5609 5607 5606 5607 5608 5609 5608 5608 5608 5608 5609 5612 5612 5612 5612 5614 5615
5801 5797 5765 5739 5711 5701 5695 5716 5716 5716 5717 5715 5698 5692 5682 5664 5664 5655 5647 5641 5637 5632 5627 5624 5621 5618 5615 5613 5611 5609 5606 5603 5600 5599 5599 5598 5598 5597 5597 5597 5597 5598 5599 5600 5602 5603 5604 5604 5606
5793 5776 5756 5718 5713 5718 5713 5714 5717 5709 5709 5704 5691 5674 5672 5668 5661 5651 5643 5638 5631 5625 5620 5618 5614 5611 5609 5607 5604 5602 5599 5596 5593 5593 5591 5591 5589 5588 5587 5587 5588 5589 5589 5590 5592 5593 5591 5593 5596
5784 5760 5716 5704 5709 5718 5721 5718 5716 5707 5699 5694 5689 5665 5658 5655 5652 5644 5639 5633 5626 5619 5614 5610 5607 5604 5602 5600 5598 5596 5592 5588 5586 5584 5582 5580 5578 5578 5578 5577 5578 5579 5581 5582 5583 5582 5582 5582 5585
5761 5752 5704 5688 5704 5717 5716 5713 5711 5703 5693 5684 5674 5664 5651 5648 5645 5638 5634 5627 5621 5614 5608 5603 5599 5596 5594 5592 5590 5588 5585 5580 5578 5576 5574 5571 5570 5569 5568 5567 5568 5570 5572 5573 5573 5572 5572 5572 5573
5755 5728 5708 5694 5698 5708 5710 5710 5705 5696 5689 5680 5678 5656 5645 5641 5639 5634 5629 5621 5615 5607 5600 5595 5592 5590 5587 5585 5583 5581 5579 5574 5572 5569 5566 5562 5560 5559 5557 5555 5556 5557 5558 5559 5560 5558 5557 5559 5562
5756 5731 5709 5701 5693 5695 5705 5702 5698 5692 5679 5682 5673 5650 5638 5640 5634 5628 5620 5611 5605 5598 5593 5590 5586 5582 5579 5576 5575 5572 5570 5567 5565 5561 5556 5551 5547 5546 5542 5542 5544 5542 5542 5540 5541 5541 5542 5546 5546
5763 5715 5695 5701 5689 5694 5696 5691 5682 5678 5672 5667 5662 5656 5651 5642 5629 5619 5610 5602 5596 5590 5585 5582 5579 5577 5573 5572 5570 5565 5563 5561 5558 5553 5547 5544 5540 5536 5531 5529 5527 5526 5525 5522 5523 5526 5528 5530 5529
5726 5694 5703 5709 5701 5689 5690 5689 5676 5661 5657 5645 5646 5644 5640 5632 5623 5614 5606 5598 5591 5583 5579 5576 5573 5570 5567 5565 5562 5559 5556 5553 5550 5545 5539 5536 5531 5525 5520 5517 5514 5510 5508 5505 5506 5508 5511 5513 5514
5715 5695 5705 5696 5697 5690 5676 5670 5668 5652 5641 5641 5634 5630 5627 5623 5614 5608 5600 5595 5588 5579 5575 5571 5568 5565 5562 5558 5555 5552 5548 5545 5541 5535 5530 5525 5519 5512 5506 5503 5498 5495 5491 5487 5486 5486 5487 5490 5493
5698 5696 5700 5695 5686 5680 5670 5666 5652 5651 5643 5633 5627 5624 5618 5614 5607 5600 5592 5587 5580 5573 5570 5564 5562 5560 5556 5553 5549 5545 5541 5538 5533 5527 5521 5515 5506 5498 5491 5486 5480 5474 5469 5467 5462 5460 5458 5459 5462
5689 5690 5687 5684 5678 5667 5666 5649 5642 5636 5633 5627 5620 5614 5608 5604 5600 5592 5589 5580 5573 5569 5563 5558 5556 5554 5552 5547 5542 5538 5534 5529 5523 5518 5508 5499 5491 5483 5475 5468 5460 5453 5447 5442 5435 5426 5418 5413 5416
5686 5677 5674 5671 5666 5659 5648 5639 5640 5625 5623 5617 5614 5605 5601 5596 5590 5585 5582 5571 5568 5563 5556 5553 5550 5550 5546 5539 5534 5529 5525 5519 5514 5507 5496 5485 5475 5468 5459 5449 5440 5432 5422 5410 5396 5384 5379 5377 5378
5678 5663 5664 5667 5660 5647 5646 5633 5618 5622 5615 5607 5604 5601 5596 5593 5586 5584 5578 5570 5564 5558 5552 5546 5546 5543 5537 5531 5527 5521 5515 5510 5503 5492 5483 5472 5462 5452 5442 5430 5420 5407 5393 5377 5367 5360 5354 5352 5352
5663 5655 5639 5654 5655 5647 5642 5621 5618 5611 5609 5599 5596 5596 5594 5589 5587 5583 5576 5570 5562 5558 5550 5544 5540 5535 5529 5524 5519 5513 5507 5500 5491 5480 5471 5460 5449 5438 5425 5412 5398 5382 5367 5357 5351 5345 5341 5338 5337
5648 5632 5637 5645 5649 5644 5634 5621 5615 5606 5605 5597 5594 5591 5593 5587 5583 5579 5577 5570 5563 5557 5550 5543 5535 5529 5524 5518 5513 5505 5498 5489 5480 5471 5459 5447 5436 5423 5408 5393 5378 5363 5353 5345 5339 5336 5333 5332 5331
5634 5634 5636 5635 5641 5637 5624 5617 5614 5605 5603 5598 5595 5589 5588 5586 5581 5577 5573 5567 5560 5556 5549 5540 5534 5526 5522 5513 5504 5497 5489 5479 5471 5460 5448 5436 5422 5408 5392 5378 5363 5351 5343 5336 5332 5330 5328 5328 5329
5655 5646 5639 5639 5642 5633 5623 5616 5610 5604 5596 5593 5590 5589 5585 5582 5580 5574 5569 5562 5554 5549 5544 5538 5530 5524 5516 5508 5496 5486 5477 5470 5462 5448 5435 5422 5408 5394 5380 5364 5351 5342 5334 5330 5328 5327 5326 5325 5324
5652 5639 5636 5641 5639 5632 5618 5613 5606 5603 5605 5603 5597 5588 5586 5579 5575 5571 5565 5558 5552 5543 5539 5532 5527 5519 5509 5502 5488 5478 5470 5462 5451 5436 5423 5410 5396 5382 5368 5353 5342 5334 5328 5326 5323 5321 5319 5319 5318
5641 5634 5631 5631 5628 5629 5622 5610 5606 5610 5606 5600 5596 5593 5588 5586 5577 5570 5562 5553 5545 5540 5534 5528 5521 5512 5504 5493 5483 5472 5464 5454 5442 5429 5414 5401 5385 5371 5358 5344 5334 5328 5325 5322 5320 5317 5315 5314 5313
5629 5647 5637 5628 5615 5599 5617 5582 5609 5609 5604 5601 5600 5591 5589 5585 5576 5570 5558 5547 5540 5535 5530 5523 5516 5507 5496 5487 5476 5466 5455 5442 5430 5416 5402 5389 5376 5364 5350 5337 5330 5325 5322 5319 5315 5314 5311 5308 5308
5627 5634 5629 5622 5610 5602 5607 5577 5601 5605 5595 5600 5602 5596 5589 5583 5578 5564 5557 5546 5537 5531 5523 5516 5508 5499 5491 5481 5470 5458 5447 5434 5422 5408 5395 5381 5370 5357 5344 5334 5327 5324 5320 5317 5314 5313 5309 5307 5305
5628 5617 5607 5602 5593 5557 5594 5582 5579 5598 5613 5610 5606 5598 5589 5578 5570 5564 5553 5543 5531 5524 5516 5510 5502 5493 5486 5475 5464 5453 5441 5429 5416 5403 5389 5376 5365 5352 5340 5331 5325 5323 5320 5317 5315 5312 5310 5308 5305
5610 5591 5543 5555 5541 5550 5605 5588 5598 5618 5627 5623 5613 5596 5586 5579 5570 5557 5547 5536 5527 5519 5511 5505 5498 5489 5479 5468 5458 5448 5437 5425 5412 5398 5383 5371 5361 5349 5338 5330 5325 5323 5320 5318 5316 5314 5313 5310 5309
5598 5592 5548 5545 5565 5576 5609 5584 5600 5623 5627 5632 5620 5595 5584 5574 5566 5554 5544 5533 5523 5516 5507 5500 5493 5484 5472 5463 5453 5443 5432 5421 5408 5394 5380 5368 5357 5347 5335 5328 5325 5323 5321 5319 5318 5316 5314 5314 5314
5594 5587 5601 5578 5569 5558 5577 5605 5612 5614 5609 5610 5599 5590 5578 5565 5558 5550 5538 5528 5520 5512 5503 5497 5490 5478 5468 5457 5447 5438 5429 5418 5404 5391 5378 5366 5356 5346 5333 5326 5324 5323 5322 5321 5319 5318 5316 5317 5318
5594 5591 5578 5570 5544 5540 5565 5590 5586 5600 5594 5595 5590 5584 5571 5565 5555 5542 5532 5525 5516 5508 5501 5494 5485 5474 5463 5453 5445 5435 5426 5414 5402 5389 5378 5367 5357 5345 5333 5326 5324 5322 5322 5321 5321 5320 5319 5319 5321
5567 5560 5559 5545 5533 5557 5541 5570 5587 5589 5590 5581 5576 5580 5570 5560 5548 5539 5530 5520 5512 5505 5500 5488 5479 5469 5459 5449 5442 5432 5422 5411 5400 5388 5378 5368 5357 5345 5333 5326 5323 5322 5321 5321 5321 5321 5320 5321 5323
5575 5567 5560 5541 5529 5535 5518 5552 5583 5585 5585 5585 5577 5573 5562 5557 5546 5537 5528 5519 5509 5503 5494 5483 5474 5466 5456 5447 5439 5430 5419 5408 5397 5387 5378 5368 5357 5346 5334 5325 5322 5321 5322 5322 5321 5322 5322 5322 5326